Location: Chimay
(50.0486°N, 4.3171°E)
Time: 06:13:55
(UTC+00:00)

Cosmos 1818 - Pass Details

Date: 08 August 2020
Orbit: 776 x 797 km, 65.0° (Epoch: 23 September)

Event Time Altitude Azimuth Distance (km) Brightness Sun altitude
Rises 19:59:01 0° 319° (NW) 3,309 8.7 -7.2°
Reaches altitude 10° 20:01:26 10° 319° (NW) 2,377 7.6 -7.5°
Maximum altitude 20:06:56 87° 232° (SW) 805 3.6 -8.2°
Drops below altitude 10° 20:12:23 10° 144° (SE) 2,363 5.4 -8.9°
Enters shadow 20:12:24 10° 144° (SE) 2,368 5.4 -8.9°
